Tracking 27086 objects as of 22-Mar-2023
HD Live streaming from Space Station
objects crossing your sky now

STARLINK-5412

Track STARLINK-5412 now!
10-day predictions
STARLINK-5412 is classified as:


NORAD ID: 54806
Int'l Code: 2022-175BA
Perigee: 545.8 km
Apogee: 547.9 km
Inclination: 53.2 °
Period: 95.4 minutes
Semi major axis: 6917 km
RCS: Unknown
Launch date: December 17, 2022
Source: United States (US)
Launch site: AIR FORCE EASTERN TEST RANGE (AFETR)
Your satellite tracking list
Your tracking list is empty




NASA's NSSDC Master Catalog

Two Line Element Set (TLE):
1 54806U 22175BA  23081.52110446  .00000285  00000-0  35972-4 0  9992
2 54806  53.2184 211.2405 0001493  68.1096 292.0055 15.08846905 14453
Source of the keplerian elements: AFSPC